Showing default

OPS 9317 (IDSCS 7), 2221

Orbit data source: Space-Track

OPS 9317 (IDSCS 7), 2221 is a payload satellite owned by USAF SSD (US) in GEO that was launched on Thu, 16 Jun 1966 UTC via a TITAN IIIC launch vehicle from the Air Force Eastern Test Range (AFETR). Payload-class satellites include a variety of spacecraft equipped with specific instruments for various scientific and technological missions. These include communications satellites like Starlink; space stations such as the ISS; scientific satellites like the Hubble; Earth observation satellites from companies like Planet Labs, Umbra, and HawkEye 360; GPS; miniature CubeSats for education and research; and military/defense satellites.

Loading next visibility...
Identifier
2221, 1966-053H
Orbit
GEO
Country
Flag of USUS
Related business
Manufacturer
Philco-Ford WDL
Mission
Non-operational spacecraft
Bus & Motor
IDCSP, Unknown motor
Mass
45 kg wet, 45 kg dry
Launch date (UTC)
1966-06-16 (60 years ago)
Launch vehicle
TITAN IIIC
Launch site
Air Force Eastern Test Range (AFETR)
Object type
Payload
Rocket body
Debris
Shape & HBR
Unknown
Radar Cross Section
Medium (>0.1 m² and <1 m²)

Expand to show TLE details & history
Last TLE update: 2 days ago

TLE from 2 days ago
0 OPS 9317 (IDSCS 7)
1 02221U 66053H   26194.81822660 -.00000067  00000-0  00000-0 0  9996
2 02221   8.4866  46.7265 0081449 175.8489 184.2312  1.06868473 51313
Epoch: 2026-07-13T19:38Z
TLE epoch observation values (Epoch: 2026-07-13T19:38:14.778Z)
Latitude
0.00001°
Longitude
-179.50801°
Altitude
34,359.715 km
Speed
3.115 km/s
True Right ascension
03h 07m 00s
True Declination
0° 00' 00"
Sunlit
Object was in daylight at epoch
Visualization orbit readout
Latitude
Unknown
Longitude
Unknown
Altitude
Unknown
Speed
Unknown
Apparent Right ascension
Unknown
Apparent Declination
Unknown
Sunlit
N/A
Visualization observer readout
Local Sidereal Time
05:55:00
Azimuth
Unknown
Elevation
Unknown
Doppler factor
Unknown
Orbital elements
Apogee altitude
34,363.33 km
Perigee altitude
33,705.021 km
Semi-major axis
40,412.312 km
Eccentricity
0.00814
Inclination
8.4866°
RAAN
46.7265°
Arg. of periapsis
175.8489°
True anomaly
184.16303°
Mean anomaly
184.2312°
Eccentric anomaly
184.19705°
Mean motion
0.26716 °/min
Orbital period
1,347.5 mins
BSTAR
0
Loading maneuver chart data...
Computing Atmospheric mass density...
Loading historical data...
Loading historical data...
Loading historical data...
Loading historical data...
Loading historical data...
Loading historical data...
Loading historical data...

Documentation

Showing up to 5 results
|